IZ1HKE-13 Weather Reports


Display with metric or nautical units.
time (UTC)temp
F
wind
direction
speed
MPH
gust
MPH
rain 1hr
in
rain 24hr
in
rain mn
in
humidity
%
barometer
mb
20260506001759 51 140 0.0 0.0 0.00 0.00 0.00 99 1017.8
20260506000632 51 155 0.0 0.0 0.00 0.00 0.00 99 1018.0
20260505235452 51 155 0.0 0.0 0.00 0.00 0.00 99 1018.2
20260505234324 51 154 0.0 0.0 0.00 0.00 0.00 99 1018.2
20260505233157 51 154 0.0 0.0 0.00 0.00 0.00 99 1018.2
20260505232029 52 142 0.0 0.0 0.00 0.00 0.00 99 1018.3
20260505230902 52 142 0.0 0.0 0.00 0.00 0.00 99 1018.4
20260505225735 51 159 0.0 4.0 0.00 0.00 0.65 99 1018.4
20260505224607 52 144 0.0 3.0 0.00 0.00 0.65 99 1018.5
20260505223440 52 162 0.0 3.0 0.00 0.00 0.65 99 1018.7
20260505222312 52 160 3.0 4.0 0.00 0.00 0.65 99 1018.8
20260505221145 52 174 0.0 2.0 0.00 0.00 0.65 99 1018.7
20260505220017 53 126 0.0 2.0 0.00 0.00 0.65 99 1018.7
20260505214850 53 156 3.0 3.0 0.00 0.00 0.65 99 1019.1
20260505213722 53 164 0.0 3.0 0.00 0.00 0.65 99 1019.0
20260505212554 53 143 0.0 1.0 0.00 0.00 0.65 99 1019.2
20260505211427 54 145 0.0 2.0 0.00 0.00 0.65 99 1019.2
20260505210259 54 189 0.0 0.0 0.00 0.00 0.65 99 1019.2
20260505205107 54 126 0.0 0.0 0.00 0.00 0.65 99 1019.3
20260505203939 54 123 0.0 0.0 0.00 0.00 0.65 99 1019.3
20260505202812 54 133 0.0 0.0 0.00 0.00 0.65 99 1019.3
20260505201644 54 133 0.0 0.0 0.00 0.00 0.65 98 1019.3
20260505200517 55 133 0.0 0.0 0.00 0.00 0.65 98 1019.3
20260505195349 55 133 0.0 0.0 0.00 0.00 0.65 97 1019.3
20260505194222 55 133 0.0 0.0 0.00 0.00 0.65 97 1019.3
20260505193054 56 39 0.0 0.0 0.00 0.00 0.65 95 1019.1
20260505191927 57 36 0.0 0.0 0.00 0.00 0.65 94 1019.1
20260505190759 57 33 0.0 0.0 0.00 0.00 0.65 94 1019.1
20260505185632 58 33 0.0 0.0 0.00 0.00 0.65 92 1019.0
20260505184504 58 33 0.0 0.0 0.00 0.00 0.65 92 1019.0
20260505183337 58 144 0.0 0.0 0.00 0.00 0.65 91 1019.0
20260505182209 58 144 0.0 0.0 0.00 0.00 0.65 90 1019.0
20260505181042 58 144 0.0 0.0 0.00 0.00 0.65 90 1018.9
20260505175914 59 144 0.0 0.0 0.00 0.00 0.65 89 1018.8
20260505174747 59 144 0.0 0.0 0.00 0.00 0.65 90 1018.8
20260505173619 58 144 0.0 0.0 0.00 0.00 0.65 92 1018.8
20260505172452 59 162 0.0 0.0 0.00 0.00 0.65 90 1018.8
20260505171325 59 162 0.0 0.0 0.00 0.00 0.65 88 1018.8
20260505170157 59 164 0.0 1.0 0.00 0.00 0.65 88 1018.9
20260505165030 59 163 0.0 0.0 0.00 0.00 0.65 87 1018.9
20260505163902 59 165 0.0 1.0 0.00 0.00 0.65 86 1018.9
20260505162735 59 122 0.0 0.0 0.00 0.00 0.65 86 1018.9
20260505161607 59 120 0.0 1.0 0.00 0.00 0.65 85 1019.0
20260505160440 59 116 0.0 0.0 0.00 0.00 0.65 86 1019.0
20260505153005 61 163 0.0 0.0 0.00 0.00 0.65 80 1019.2
20260505151837 61 114 0.0 0.0 0.00 0.00 0.65 79 1019.1
20260505150710 61 198 0.0 2.0 0.00 0.00 0.65 80 1019.2
20260505124927 59 270 0.0 2.0 0.00 0.00 0.65 85 1019.9
20260505123759 57 172 0.0 0.0 0.00 0.00 0.65 85 1020.1
20260505122632 57 82 0.0 0.0 0.00 0.00 0.65 86 1020.2
20260505121504 57 87 0.0 0.0 0.00 0.00 0.65 90 1020.1
20260505120337 56 87 0.0 0.0 0.00 0.00 0.65 89 1020.1
20260505115209 56 75 0.0 0.0 0.00 0.00 0.65 88 1020.2
20260505114042 56 348 0.0 0.0 0.00 0.00 0.65 90 1020.2
20260505112914 56 359 0.0 0.0 0.00 0.00 0.65 90 1020.3
20260505111747 56 354 0.0 3.0 0.00 0.00 0.65 93 1020.3
20260505110619 57 292 0.0 2.0 0.00 0.00 0.65 94 1020.4
20260505100850 55 198 0.0 0.0 0.00 0.00 0.65 96 1020.5
20260505095722 55 180 0.0 0.0 0.00 0.00 0.65 97 1020.5
20260505094555 54 186 0.0 0.0 0.00 0.00 0.65 97 1020.5
20260505093427 54 84 0.0 0.0 0.00 0.00 0.65 98 1020.5
20260505092300 54 81 0.0 0.0 0.00 0.00 0.65 98 1020.5
20260505091132 54 78 0.0 0.0 0.01 0.00 0.65 98 1020.5
20260505090005 54 76 0.0 0.0 0.01 0.00 0.65 99 1020.3
20260505084837 53 76 0.0 0.0 0.01 0.00 0.65 99 1020.4
20260505083710 53 76 0.0 0.0 0.01 0.00 0.65 99 1020.4
20260505082542 53 76 0.0 0.0 0.01 0.00 0.65 98 1020.3
20260505081415 53 190 0.0 0.0 0.00 0.00 0.64 99 1020.4
20260505080247 53 222 0.0 0.0 0.00 0.00 0.64 99 1020.3
20260505075120 53 327 0.0 0.0 0.00 0.00 0.64 99 1020.3
20260505073952 52 327 0.0 0.0 0.00 0.00 0.64 99 1020.2
20260505072825 52 306 0.0 0.0 0.00 0.00 0.64 99 1020.1
20260505071658 53 312 0.0 0.0 0.00 0.00 0.64 99 1020.2
20260505070530 52 327 0.0 0.0 0.00 0.00 0.64 99 1020.1
20260505065403 52 336 0.0 3.0 0.00 0.00 0.64 99 1020.1
20260505064235 52 276 0.0 0.0 0.00 0.00 0.64 99 1020.2
20260505063108 52 309 1.0 1.0 0.01 0.00 0.64 99 1020.2
20260505061940 52 186 0.0 1.0 0.01 0.00 0.64 99 1020.1
20260505060813 53 309 1.0 2.0 0.01 0.00 0.64 99 1019.9
20260505055645 53 327 0.0 2.0 0.05 0.00 0.64 99 1019.9
20260505054517 53 312 0.0 1.0 0.11 0.00 0.64 99 1019.7
20260505053350 53 318 0.0 3.0 0.18 0.00 0.64 99 1019.6
20260505052222 53 40 0.0 1.0 0.23 0.00 0.64 99 1019.8
20260505051055 53 84 0.0 2.0 0.28 0.00 0.64 99 1019.5
20260505041337 53 115 0.0 0.0 0.19 0.00 0.37 99 1020.1
20260505040210 53 270 0.0 1.0 0.16 0.00 0.32 99 1019.8
20260505035042 53 128 0.0 0.0 0.11 0.00 0.26 98 1020.0
20260505033915 53 139 0.0 0.0 0.08 0.00 0.21 98 1020.1
20260505032747 53 324 0.0 0.0 0.08 0.00 0.21 99 1019.8
20260505031620 53 265 0.0 0.0 0.06 0.00 0.19 99 1019.9
20260505030453 53 265 0.0 0.0 0.03 0.00 0.16 98 1019.9
20260505025325 54 342 0.0 0.0 0.02 0.00 0.15 99 1019.9
20260505024158 54 54 0.0 0.0 0.02 0.00 0.13 98 1020.2
20260505023030 54 56 0.0 0.0 0.03 0.00 0.13 98 1020.2
20260505021903 54 56 0.0 0.0 0.04 0.00 0.13 98 1020.3
20260505020735 54 159 0.0 0.0 0.05 0.00 0.13 97 1020.5
20260505015608 54 40 0.0 0.0 0.06 0.00 0.13 97 1020.7
20260505014428 54 34 0.0 0.0 0.07 0.00 0.12 96 1020.8
20260505013300 54 350 0.0 0.0 0.06 0.00 0.10 95 1020.9
20260505012133 54 350 0.0 0.0 0.06 0.00 0.09 94 1020.9
20260505011005 54 41 0.0 0.0 0.06 0.00 0.08 93 1021.0
20260505005838 55 342 0.0 0.0 0.07 0.00 0.08 93 1021.1
20260505004710 55 349 0.0 0.0 0.05 0.00 0.06 93 1021.3
20260505003543 55 344 0.0 0.0 0.04 0.00 0.04 92 1021.4
20260505002415 56 78 0.0 0.0 0.03 0.00 0.03 92 1021.6